Observations for Trim Patrick St
| Time | AQI | Temp °C | Hum % | Pres Pa | CO μg/m³ | H₂S μg/m³ | NO μg/m³ | NO₂ μg/m³ | O₃ μg/m³ | SO₂ μg/m³ | PM1 μg/m³ | PM2.5 μg/m³ | PM10 μg/m³ |
|---|---|---|---|---|---|---|---|---|---|---|---|---|---|
| Wednesday 5 August 2026 | |||||||||||||
| 13:13 | 2 | 23.2 | 47 | 69,171 | 0 | 0 | 2.32 | 5.76 | 65.14 | 5.24 | 2 | 6.62 | 7.28 |
| 13:12 | 2 | 23.1 | 47 | 69,187 | 0 | 0 | 2.34 | 3.81 | 65.62 | 5.62 | 2 | 6.61 | 7.27 |
| 13:11 | 2 | 23.1 | 47 | 69,210 | 0 | 0 | 2.4 | 4.75 | 61.59 | 4.37 | 2 | 6.58 | 7.24 |
| 13:10 | 2 | 23.1 | 48 | 69,236 | 0 | 0 | 2.44 | 3.52 | 55.84 | 5.09 | 2 | 6.57 | 7.23 |
| 13:09 | 2 | 23.1 | 48 | 69,271 | 0 | 0 | 2.5 | 5.9 | 63.46 | 5.41 | 2 | 6.55 | 7.2 |
| 13:08 | 2 | 23 | 48 | 69,284 | 0 | 0 | 2.48 | 8.01 | 65 | 4.87 | 2 | 6.55 | 7.21 |
| 13:07 | 2 | 23 | 48 | 69,264 | 0 | 0 | 2.49 | 7.35 | 55.2 | 4.83 | 2 | 6.55 | 7.2 |
| 13:06 | 2 | 23 | 48 | 69,302 | 0 | 0 | 2.55 | 6.41 | 63.7 | 5.09 | 2 | 6.51 | 7.16 |
| 13:05 | 2 | 23 | 48 | 69,351 | 0 | 0 | 2.49 | 7.68 | 64.62 | 4.29 | 2 | 6.54 | 7.19 |
| 13:04 | 2 | 22.9 | 48 | 69,361 | 0 | 0 | 2.51 | 5.53 | 63.63 | 4.73 | 2 | 6.54 | 7.19 |
| 13:03 | 2 | 22.8 | 48 | 69,432 | 0 | 0 | 2.57 | 5.96 | 64.24 | 4.5 | 2 | 6.51 | 7.16 |
| 13:02 | 2 | 22.8 | 48 | 69,527 | 0 | 0 | 2.49 | 4.42 | 57.81 | 4.59 | 2 | 6.54 | 7.19 |
| 13:01 | 2 | 22.8 | 49 | 69,597 | 0 | 0 | 2.67 | 5.51 | 63.21 | 5.17 | 2 | 7.22 | 7.94 |
| 13:00 | 2 | 22.7 | 50 | 69,624 | 0 | 0 | 2.71 | 8.82 | 71.91 | 4.71 | 2 | 6.43 | 7.07 |
| 12:59 | 2 | 22.7 | 49 | 69,599 | 0 | 0 | 2.62 | 8.24 | 64.76 | 4.73 | 2 | 6.48 | 7.12 |
| 12:58 | 2 | 22.6 | 49 | 69,595 | 0 | 0 | 2.54 | 6.47 | 61.54 | 4.89 | 2 | 6.5 | 7.15 |
| 12:57 | 2 | 22.7 | 49 | 69,561 | 0 | 0 | 2.62 | 8.74 | 66.89 | 4.71 | 2 | 6.49 | 7.14 |
| 12:56 | 2 | 22.7 | 49 | 69,579 | 0 | 0 | 2.62 | 5.26 | 60.23 | 4.3 | 2 | 6.49 | 7.14 |
| 12:55 | 2 | 22.7 | 49 | 69,665 | 0 | 0 | 2.64 | 8.49 | 63.12 | 4.43 | 2 | 6.48 | 7.13 |
| 12:54 | 2 | 22.6 | 49 | 69,746 | 0 | 0 | 2.58 | 5.19 | 59.61 | 3.95 | 2 | 6.5 | 7.15 |